KB5DPX Weather Reports


Display with metric or nautical units.
time (UTC)temp
F
wind
direction
speed
MPH
gust
MPH
rain 1hr
in
rain 24hr
in
rain mn
in
humidity
%
barometer
mb
20200812025200 67 210 5.0 10.0 0.00 0.00 0.00 66 1015.9
20200812024709 67 232 7.0 10.0 0.00 0.00 0.00 67 1015.9
20200812024153 66 206 5.0 10.0 0.00 0.00 0.00 68 1015.9
20200812023709 66 211 3.0 8.0 0.00 0.00 0.00 69 1015.9
20200812023213 65 211 2.0 8.0 0.00 0.00 0.00 70 1015.9
20200812022714 65 208 1.0 7.0 0.00 0.00 0.00 71 1015.8
20200812022220 65 201 0.0 0.0 0.00 0.00 0.00 71 1015.8
20200812021711 65 199 0.0 0.0 0.00 0.00 0.00 72 1015.8
20200812021211 66 192 0.0 0.0 0.00 0.00 0.00 72 1015.5
20200812020716 66 175 0.0 0.0 0.00 0.00 0.00 71 1015.5
20200812020231 66 175 0.0 0.0 0.00 0.00 0.00 70 1015.4
20200812015653 67 176 0.0 0.0 0.00 0.00 0.00 69 1015.2
20200812015236 67 178 0.0 0.0 0.00 0.00 0.00 68 1015.2
20200812014714 67 179 0.0 0.0 0.00 0.00 0.00 68 1015.1
20200812014154 68 179 0.0 0.0 0.00 0.00 0.00 67 1015.1
20200812013711 68 179 0.0 0.0 0.00 0.00 0.00 66 1015.0
20200812013215 68 182 0.0 8.0 0.00 0.00 0.00 65 1014.9
20200812012657 69 177 0.0 8.0 0.00 0.00 0.00 65 1014.8
20200812012212 69 200 0.0 0.0 0.00 0.00 0.00 63 1014.8
20200812011659 69 199 0.0 0.0 0.00 0.00 0.00 62 1014.8
20200812011154 70 199 0.0 0.0 0.00 0.00 0.00 60 1014.7
20200812010736 70 197 0.0 0.0 0.00 0.00 0.00 59 1014.7
20200812010156 71 203 0.0 0.0 0.00 0.00 0.00 58 1014.7
20200812005709 71 203 0.0 0.0 0.00 0.00 0.00 57 1014.8
20200812005217 71 205 0.0 0.0 0.00 0.00 0.00 57 1014.8
20200812004709 72 215 0.0 0.0 0.00 0.00 0.00 56 1014.8
20200812004229 72 211 0.0 0.0 0.00 0.00 0.00 55 1014.8
20200812003719 73 215 0.0 0.0 0.00 0.00 0.00 54 1014.8
20200812003202 73 225 0.0 0.0 0.00 0.00 0.00 53 1014.8
20200812002728 73 221 0.0 0.0 0.00 0.00 0.00 53 1014.8
20200812002210 73 200 0.0 0.0 0.00 0.00 0.00 53 1014.7
20200812001717 74 220 0.0 8.0 0.00 0.00 0.00 53 1014.7
20200812001203 74 215 1.0 9.0 0.00 0.00 0.00 53 1014.7
20200812000717 74 219 6.0 9.0 0.00 0.00 0.00 54 1014.7
20200812000208 74 209 0.0 6.0 0.00 0.00 0.00 52 1014.7
20200811235716 74 222 0.0 8.0 0.00 0.00 0.00 51 1014.7
20200811235159 74 229 5.0 8.0 0.00 0.00 0.00 51 1014.7
20200811234709 75 229 2.0 9.0 0.00 0.00 0.00 50 1014.7
20200811234214 75 235 5.0 12.0 0.00 0.00 0.00 49 1014.7
20200811233719 75 227 8.0 17.0 0.00 0.00 0.00 50 1014.7
20200811233238 75 227 9.0 17.0 0.00 0.00 0.00 49 1014.7
20200811232717 75 251 8.0 11.0 0.00 0.00 0.00 48 1014.7
20200811232202 75 241 6.0 14.0 0.00 0.00 0.00 46 1014.8
20200811231718 76 245 8.0 14.0 0.00 0.00 0.00 45 1014.7
20200811231155 76 278 6.0 13.0 0.00 0.00 0.00 46 1014.7
20200811230707 76 246 8.0 14.0 0.00 0.00 0.00 46 1014.8
20200811230216 77 245 8.0 15.0 0.00 0.00 0.00 44 1014.8
20200811225657 77 275 11.0 15.0 0.00 0.00 0.00 43 1014.8
20200811225212 77 234 8.0 13.0 0.00 0.00 0.00 42 1014.8
20200811224658 77 251 6.0 15.0 0.00 0.00 0.00 42 1014.8
20200811224202 77 271 8.0 13.0 0.00 0.00 0.00 42 1014.8
20200811223720 77 240 8.0 13.0 0.00 0.00 0.00 42 1014.9
20200811223224 77 257 9.0 15.0 0.00 0.00 0.00 42 1015.0
20200811222734 78 252 10.0 14.0 0.00 0.00 0.00 43 1015.0
20200811222155 78 251 7.0 14.0 0.00 0.00 0.00 43 1015.0
20200811221711 78 256 8.0 16.0 0.00 0.00 0.00 43 1015.0
20200811221214 78 256 7.0 16.0 0.00 0.00 0.00 41 1015.0
20200811220658 78 248 9.0 13.0 0.00 0.00 0.00 43 1015.0
20200811220213 78 260 8.0 14.0 0.00 0.00 0.00 43 1015.1
20200811204231 77 277 7.0 14.0 0.00 0.00 0.00 47 1015.0
20200811203714 77 275 8.0 14.0 0.00 0.00 0.00 46 1015.1
20200811203217 77 300 10.0 14.0 0.00 0.00 0.00 46 1015.0
20200811202702 77 294 9.0 14.0 0.00 0.00 0.00 47 1014.9
20200811202215 77 286 10.0 14.0 0.00 0.00 0.00 48 1015.0
20200811201719 77 286 9.0 14.0 0.00 0.00 0.00 47 1015.0
20200811201208 77 288 10.0 17.0 0.00 0.00 0.00 48 1014.9
20200811200713 77 286 9.0 17.0 0.00 0.00 0.00 47 1015.0
20200811200219 77 279 10.0 15.0 0.00 0.00 0.00 50 1015.0
20200811195702 77 279 9.0 15.0 0.00 0.00 0.00 48 1014.9
20200811195218 78 280 11.0 15.0 0.00 0.00 0.00 48 1014.9
20200811194704 78 281 10.0 17.0 0.00 0.00 0.00 48 1014.9
20200811194235 77 289 9.0 17.0 0.00 0.00 0.00 50 1014.8
20200811193701 77 311 9.0 12.0 0.00 0.00 0.00 49 1014.8
20200811193229 78 278 8.0 14.0 0.00 0.00 0.00 48 1014.8
20200811192711 77 300 9.0 15.0 0.00 0.00 0.00 48 1014.7
20200811192217 77 309 8.0 15.0 0.00 0.00 0.00 44 1014.7
20200811191703 77 289 10.0 14.0 0.00 0.00 0.00 45 1014.7
20200811191218 77 280 9.0 14.0 0.00 0.00 0.00 44 1014.6
20200811190706 77 288 9.0 16.0 0.00 0.00 0.00 44 1014.7
20200811190216 77 290 10.0 16.0 0.00 0.00 0.00 44 1014.7
20200811185659 77 280 10.0 14.0 0.00 0.00 0.00 47 1014.6
20200811185214 77 290 9.0 14.0 0.00 0.00 0.00 46 1014.6
20200811184715 77 309 10.0 16.0 0.00 0.00 0.00 46 1014.6
20200811184218 77 284 12.0 16.0 0.00 0.00 0.00 46 1014.6
20200811183704 77 271 10.0 14.0 0.00 0.00 0.00 46 1014.6
20200811183222 76 269 8.0 14.0 0.00 0.00 0.00 47 1014.7
20200811182714 76 275 9.0 14.0 0.00 0.00 0.00 49 1014.7
20200811182203 76 315 7.0 14.0 0.00 0.00 0.00 50 1014.6
20200811181726 76 277 8.0 16.0 0.00 0.00 0.00 50 1014.6
20200811181212 76 274 8.0 16.0 0.00 0.00 0.00 51 1014.7
20200811180656 76 291 8.0 11.0 0.00 0.00 0.00 56 1014.7
20200811180239 75 313 6.0 11.0 0.00 0.00 0.00 60 1014.7
20200811175715 75 278 7.0 13.0 0.00 0.00 0.00 58 1014.6
20200811175221 75 284 10.0 14.0 0.00 0.00 0.00 58 1014.7
20200811174701 74 277 9.0 14.0 0.00 0.00 0.00 58 1014.7
20200811174213 74 301 6.0 12.0 0.00 0.00 0.00 63 1014.6
20200811173702 74 288 8.0 13.0 0.00 0.00 0.00 60 1014.6
20200811173210 74 268 7.0 13.0 0.00 0.00 0.00 65 1014.6
20200811172721 74 294 8.0 13.0 0.00 0.00 0.00 63 1014.5
20200811172236 74 292 9.0 13.0 0.00 0.00 0.00 66 1014.5
20200811171700 73 294 9.0 14.0 0.00 0.00 0.00 69 1014.5
20200811171214 73 309 10.0 15.0 0.00 0.00 0.00 69 1014.4
20200811170717 73 267 8.0 15.0 0.00 0.00 0.00 68 1014.4
20200811170220 73 281 10.0 15.0 0.00 0.00 0.00 70 1014.4
20200811165702 73 292 10.0 15.0 0.00 0.00 0.00 64 1014.4
20200811165215 74 287 10.0 13.0 0.00 0.00 0.00 63 1014.4
20200811164727 74 298 7.0 15.0 0.00 0.00 0.00 61 1014.3
20200811164203 73 280 10.0 14.0 0.00 0.00 0.00 60 1014.3
20200811163708 73 282 9.0 15.0 0.00 0.00 0.00 65 1014.3
20200811163211 73 305 9.0 15.0 0.00 0.00 0.00 69 1014.4
20200811162714 73 333 9.0 18.0 0.00 0.00 0.00 73 1014.4
20200811162219 72 306 12.0 18.0 0.00 0.00 0.00 71 1014.3
20200811161702 72 319 7.0 13.0 0.00 0.00 0.00 75 1014.3
20200811161217 72 319 6.0 13.0 0.00 0.00 0.00 77 1014.2
20200811160700 71 344 7.0 13.0 0.00 0.00 0.00 78 1014.3
20200811160213 72 290 8.0 14.0 0.00 0.00 0.00 77 1014.3
20200811155713 71 300 10.0 16.0 0.00 0.00 0.00 77 1014.4
20200811155215 71 281 9.0 16.0 0.00 0.00 0.00 76 1014.3
20200811154716 72 261 10.0 14.0 0.00 0.00 0.00 77 1014.4
20200811154158 72 264 9.0 14.0 0.00 0.00 0.00 77 1014.3
20200811153738 72 281 9.0 14.0 0.00 0.00 0.00 76 1014.3
20200811153203 72 253 10.0 14.0 0.00 0.00 0.00 71 1014.3
20200811152654 72 260 9.0 14.0 0.00 0.00 0.00 68 1014.2
20200811152205 72 274 9.0 13.0 0.00 0.00 0.00 69 1014.0
20200811151711 72 285 9.0 13.0 0.00 0.00 0.00 68 1014.0
20200811151215 72 267 8.0 14.0 0.00 0.00 0.00 69 1013.9
20200811150737 72 273 9.0 14.0 0.00 0.00 0.00 72 1013.9
20200811150220 71 279 9.0 14.0 0.00 0.00 0.00 75 1013.9
20200811145659 72 283 10.0 14.0 0.00 0.00 0.00 74 1013.8
20200811145226 72 284 10.0 14.0 0.00 0.00 0.00 73 1013.8
20200811144710 72 282 0.0 0.0 0.00 0.00 0.00 74 1013.8
20200811144243 71 269 0.0 12.0 0.00 0.00 0.00 76 1013.9
20200811143705 71 286 0.0 13.0 0.00 0.00 0.00 76 1013.9
20200811143218 71 265 9.0 14.0 0.00 0.00 0.00 76 1013.9
20200811142701 71 241 8.0 14.0 0.00 0.00 0.00 76 1013.8
20200811142212 71 273 8.0 13.0 0.00 0.00 0.00 77 1013.7
20200811141712 71 259 8.0 16.0 0.00 0.00 0.00 75 1013.7
20200811141155 71 264 9.0 15.0 0.00 0.00 0.00 76 1013.6
20200811140709 71 274 9.0 15.0 0.00 0.00 0.00 74 1013.6
20200811140213 71 267 7.0 14.0 0.00 0.00 0.00 74 1013.5
20200811135715 71 270 1.0 14.0 0.00 0.00 0.00 76 1013.4
20200811135156 71 298 5.0 12.0 0.00 0.00 0.00 76 1013.5
20200811134716 70 248 4.0 12.0 0.00 0.00 0.00 75 1013.5
20200811134216 70 293 1.0 10.0 0.00 0.00 0.00 76 1013.5
20200811133720 70 293 2.0 10.0 0.00 0.00 0.00 77 1013.4
20200811133206 70 281 0.0 4.0 0.00 0.00 0.00 78 1013.5
20200811132736 70 284 0.0 10.0 0.00 0.00 0.00 79 1013.5
20200811132159 70 300 2.0 10.0 0.00 0.00 0.00 81 1013.5
20200811131711 69 246 0.0 0.0 0.00 0.00 0.00 83 1013.5
20200811131157 69 207 0.0 0.0 0.00 0.00 0.00 84 1013.5
20200811130706 68 134 0.0 0.0 0.00 0.00 0.00 86 1013.4
20200811130234 67 133 0.0 0.0 0.00 0.00 0.00 87 1013.4
20200811125654 66 132 0.0 0.0 0.00 0.00 0.00 87 1013.2
20200811125210 66 124 0.0 0.0 0.00 0.00 0.00 88 1013.3
20200811124843 65 117 0.0 0.0 0.00 0.00 0.00 89 1013.2
20200811124222 65 232 0.0 0.0 0.00 0.00 0.00 89 1013.1
20200811123735 64 234 0.0 0.0 0.00 0.00 0.00 89 1013.1
20200811123213 64 247 0.0 0.0 0.00 0.00 0.00 89 1013.1
20200811122717 63 255 0.0 0.0 0.00 0.00 0.00 90 1013.1
20200811122222 63 256 0.0 0.0 0.00 0.00 0.00 90 1013.0
20200811121725 62 272 0.0 0.0 0.00 0.00 0.00 90 1013.0
20200811121225 62 273 0.0 0.0 0.00 0.00 0.00 90 1013.0
20200811120705 62 274 0.0 0.0 0.00 0.00 0.00 90 1012.9
20200811120215 62 300 0.0 0.0 0.00 0.00 0.00 90 1012.9
20200811115715 61 302 0.0 0.0 0.00 0.00 0.00 91 1012.9
20200811115155 61 302 0.0 0.0 0.00 0.00 0.00 90 1012.8
20200811114707 60 302 0.0 0.0 0.00 0.00 0.00 90 1012.8
20200811114213 60 302 0.0 0.0 0.00 0.00 0.00 91 1012.7
20200811113658 60 302 0.0 0.0 0.00 0.00 0.00 91 1012.7
20200811113240 59 302 0.0 0.0 0.00 0.00 0.00 90 1012.6
20200811112701 58 302 0.0 0.0 0.00 0.00 0.00 91 1012.4
20200811112214 58 302 0.0 0.0 0.00 0.00 0.00 91 1012.4
20200811111654 58 302 0.0 0.0 0.00 0.00 0.00 91 1012.4
20200811111209 58 302 0.0 0.0 0.00 0.00 0.00 91 1012.4
20200811110713 58 302 0.0 0.0 0.00 0.00 0.00 91 1012.4
20200811110216 58 302 0.0 0.0 0.00 0.00 0.00 91 1012.2
20200811105700 58 302 0.0 0.0 0.00 0.00 0.00 91 1012.2
20200811105213 58 302 0.0 0.0 0.00 0.00 0.00 91 1012.2
20200811104719 58 302 0.0 0.0 0.00 0.00 0.00 91 1012.1
20200811104205 58 302 0.0 0.0 0.00 0.00 0.00 91 1012.0
20200811103738 58 302 0.0 0.0 0.00 0.00 0.00 91 1011.9
20200811103220 58 302 0.0 0.0 0.00 0.00 0.00 91 1011.9
20200811102723 59 302 0.0 0.0 0.00 0.00 0.00 91 1011.7
20200811102220 59 302 0.0 0.0 0.00 0.00 0.00 91 1011.6
20200811101707 59 302 0.0 0.0 0.00 0.00 0.00 91 1011.4
20200811101217 59 302 0.0 0.0 0.00 0.00 0.00 91 1011.4
20200811100659 59 302 0.0 0.0 0.00 0.00 0.00 91 1011.2
20200811100207 60 302 0.0 0.0 0.00 0.00 0.00 91 1011.1
20200811095711 60 302 0.0 0.0 0.00 0.00 0.00 90 1011.1
20200811095218 60 302 0.0 0.0 0.00 0.00 0.00 90 1011.0
20200811094704 61 302 0.0 0.0 0.00 0.00 0.00 90 1010.7
20200811094241 61 302 0.0 0.0 0.00 0.00 0.00 90 1010.7
20200811093706 61 302 0.0 0.0 0.00 0.00 0.00 89 1010.6
20200811093218 62 302 0.0 0.0 0.00 0.00 0.00 89 1010.5
20200811092719 62 302 0.0 0.0 0.00 0.00 0.00 89 1010.5
20200811092209 63 302 0.0 0.0 0.00 0.00 0.00 89 1010.5
20200811091713 63 302 0.0 0.0 0.00 0.00 0.00 89 1010.4
20200811091158 63 302 0.0 0.0 0.00 0.00 0.00 89 1010.4
20200811090712 63 302 0.0 0.0 0.00 0.00 0.00 89 1010.3
20200811090157 64 302 0.0 0.0 0.00 0.00 0.00 88 1010.2
20200811085710 64 302 0.0 0.0 0.00 0.00 0.00 88 1010.2
20200811085156 64 302 0.0 0.0 0.00 0.00 0.00 87 1010.2
20200811084705 65 302 0.0 0.0 0.00 0.00 0.00 87 1010.2
20200811084210 65 302 0.0 0.0 0.00 0.00 0.00 87 1010.2
20200811083713 65 302 0.0 0.0 0.00 0.00 0.00 86 1010.2
20200811083218 65 302 0.0 0.0 0.00 0.00 0.00 86 1010.2
20200811082702 66 302 0.0 0.0 0.00 0.00 0.00 86 1010.2
20200811082234 66 302 0.0 0.0 0.00 0.00 0.00 86 1010.3
20200811081713 66 301 0.0 0.0 0.00 0.00 0.00 85 1010.2
20200811081157 66 300 0.0 0.0 0.00 0.00 0.00 84 1010.3
20200811080711 66 300 0.0 0.0 0.00 0.00 0.00 84 1010.3
20200811080217 66 299 0.0 0.0 0.00 0.00 0.00 83 1010.4
20200811075700 66 298 0.0 0.0 0.00 0.00 0.00 83 1010.4
20200811075242 66 297 0.0 0.0 0.00 0.00 0.00 84 1010.4
20200811074723 66 297 0.0 0.0 0.00 0.00 0.00 84 1010.4
20200811074210 66 296 0.0 0.0 0.00 0.00 0.00 83 1010.4
20200811073657 66 296 0.0 0.0 0.00 0.00 0.00 82 1010.3
20200811073231 67 308 0.0 0.0 0.00 0.00 0.00 82 1010.3
20200811072655 67 308 0.0 0.0 0.00 0.00 0.00 82 1010.2
20200811072236 67 308 0.0 0.0 0.00 0.00 0.00 83 1010.3
20200811071719 67 311 0.0 0.0 0.00 0.00 0.00 83 1010.4
20200811071211 67 312 0.0 0.0 0.00 0.00 0.00 83 1010.4
20200811070712 67 315 0.0 0.0 0.00 0.00 0.00 84 1010.5
20200811070155 67 315 0.0 0.0 0.00 0.00 0.00 85 1010.5
20200811065709 67 316 0.0 0.0 0.00 0.00 0.00 85 1010.6
20200811065156 67 311 0.0 0.0 0.00 0.00 0.00 86 1010.7
20200811064738 67 311 0.0 0.0 0.00 0.00 0.00 86 1010.6
20200811064202 67 319 0.0 0.0 0.00 0.00 0.00 87 1010.6
20200811063654 68 311 0.0 0.0 0.00 0.00 0.00 87 1010.6
20200811063208 68 313 0.0 0.0 0.00 0.00 0.00 87 1010.6
20200811062735 68 298 0.0 0.0 0.00 0.00 0.00 87 1010.7
20200811062220 68 300 0.0 0.0 0.00 0.00 0.00 87 1010.9
20200811061725 68 310 0.0 0.0 0.00 0.00 0.00 87 1010.8
20200811061216 68 331 0.0 0.0 0.00 0.00 0.00 87 1010.8
20200811060701 68 326 0.0 0.0 0.00 0.00 0.00 88 1011.0
20200811060214 68 330 0.0 0.0 0.00 0.00 0.00 88 1011.0
20200811055712 69 317 0.0 0.0 0.00 0.00 0.00 88 1011.0
20200811055159 69 313 0.0 0.0 0.00 0.00 0.00 88 1011.1
20200811054736 69 322 0.0 0.0 0.00 0.00 0.00 88 1011.0
20200811054202 69 319 0.0 0.0 0.00 0.00 0.00 88 1011.0
20200811053713 69 317 0.0 0.0 0.00 0.00 0.00 87 1011.0
20200811053200 69 327 0.0 0.0 0.00 0.00 0.00 87 1011.1
20200811052713 69 321 0.0 0.0 0.00 0.00 0.00 87 1011.1
20200811052159 69 343 0.0 0.0 0.00 0.00 0.00 88 1011.1
20200811051709 68 343 0.0 0.0 0.00 0.00 0.00 88 1011.1
20200811051213 68 343 0.0 0.0 0.00 0.00 0.00 88 1011.2
20200811050700 68 343 0.0 0.0 0.00 0.00 0.00 89 1011.3
20200811050233 68 343 0.0 0.0 0.00 0.00 0.00 89 1011.3
20200811045714 68 343 0.0 0.0 0.00 0.00 0.00 89 1011.3
20200811045159 68 343 0.0 0.0 0.00 0.00 0.00 89 1011.4
20200811044711 68 343 0.0 0.0 0.00 0.00 0.00 89 1011.4
20200811044158 68 343 0.0 0.0 0.00 0.00 0.00 89 1011.2
20200811043710 68 343 0.0 0.0 0.00 0.00 0.00 89 1011.2
20200811043214 69 342 0.0 0.0 0.00 0.00 0.00 88 1011.1
20200811042657 69 341 0.0 0.0 0.00 0.00 0.00 88 1011.2
20200811042210 69 341 0.0 0.0 0.00 0.00 0.00 88 1011.0
20200811041801 69 341 0.0 0.0 0.00 0.00 0.00 88 1010.8
20200811041205 69 341 0.0 0.0 0.00 0.00 0.00 88 1010.7
20200811040721 69 341 0.0 0.0 0.00 0.00 0.00 88 1010.8
20200811040200 69 341 0.0 0.0 0.00 0.00 0.00 88 1010.7
20200811035709 69 341 0.0 0.0 0.00 0.00 0.00 88 1010.8
20200811035212 69 339 0.0 0.0 0.00 0.00 0.00 88 1010.6
20200811034657 69 338 0.0 0.0 0.00 0.00 0.00 88 1010.5
20200811034239 69 334 0.0 0.0 0.00 0.00 0.00 88 1010.5
20200811033722 69 360 0.0 0.0 0.00 0.00 0.00 88 1010.4
20200811033214 69 338 0.0 0.0 0.00 0.00 0.00 88 1010.4
20200811032742 69 331 0.0 0.0 0.00 0.00 0.00 88 1010.5
20200811032208 70 338 0.0 0.0 0.00 0.00 0.00 88 1010.3
20200811031713 70 340 0.0 0.0 0.00 0.00 0.00 88 1010.3
20200811031157 70 329 0.0 0.0 0.00 0.00 0.00 88 1010.3
20200811030740 70 342 0.0 0.0 0.00 0.00 0.00 88 1010.2
20200811030204 70 351 0.0 0.0 0.00 0.00 0.00 88 1010.3
20200811025716 70 350 0.0 0.0 0.00 0.00 0.00 88 1010.4